Location: Angola by the Bay
(38.6709°N, 75.1746°W)
Time: 09:27:15
(UTC+00:00)

Envisat - Pass Details

Date: 15 October 2024
Orbit: 761 x 763 km, 98.3° (Epoch: 05 November)

Event Time Altitude Azimuth Distance (km) Brightness Sun altitude
Rises 08:33:23 0° 7° (N) 3,232 6.5 -31.2°
Reaches altitude 10° 08:35:44 10° 2° (N) 2,302 5.6 -30.8°
Enters shadow 08:36:54 17° 358° (N) 1,864 5.1 -30.6°
